Home > Weather > Luxembourg > Past weeks

Flag for Luxembourg Past Weather in Luxembourg, Luxembourg — Yesterday and Last 2 Weeks

Now
52 °F

Fog.


Feels Like: 50 °F
Forecast: 58 / 72 °F
Wind: 6 mph from Northeast

Location: Luxembourg Airport

Current Time: May 26, 2016 at 4:51:27 AM

Latest Report: May 26, 2016 at 4:20 AM


Visibility: 3 mi

Pressure: 29.98 "Hg

Humidity: 88%

Dew Point: 48 °F

Location of LuxembourgLocation

Past Weather in Luxembourg — Graph

°F

Luxembourg Temperature Yesterday

Maximum temperature yesterday: 61 °F (at 4:20 PM)
Minimum temperature yesterday: 48 °F (at 2:50 AM)
Average temperature yesterday: 54 °F

High & Low Weather Summary for the Past Weeks

 TemperatureHumidityPressure
High73 °F (May 11, 3:20 PM)100% (May 11, 5:20 AM)30.15 "Hg (May 11, 5:20 AM)
Low36 °F (May 15, 4:20 AM)41% (May 14, 4:50 PM)29.50 "Hg (May 12, 4:50 AM)
Average54 °F77%29.90 "Hg
* Reported May 11 3:20 AM — May 26 3:50 AM, Luxembourg, Weather by CustomWeather, © 2016

Note: Actual official high and low records may vary slightly from our data, if they occured in-between our weather recording intervals... More about our weather records

Advertising

Luxembourg Weather History for the Previous 24 Hours

Scroll right to see more
 ConditionsComfort  
Time TempWeatherWind HumidityBarometerVisibility
3:50 AM
Thu, May 26
52 °FFog.3 mph88%29.98 "Hg3 mi
3:20 AM52 °FPassing clouds.3 mph88%29.98 "Hg4 mi
2:50 AM52 °FPassing clouds.3 mph88%30.01 "Hg5 mi
2:20 AM52 °FPassing clouds.3 mph88%30.01 "Hg5 mi
1:50 AM52 °FClear.3 mph88%29.98 "Hg5 mi
1:20 AM52 °FClear.3 mph88%30.01 "Hg5 mi
12:50 AM54 °FPassing clouds.5 mph82%29.98 "Hg6 mi
12:20 AM54 °FPassing clouds.5 mph82%29.98 "HgN/A
11:50 PM
Wed, May 25
54 °FClear.6 mph82%29.98 "Hg6 mi
11:20 PM55 °FClear.6 mph77%29.98 "Hg10 mi
10:50 PM55 °FClear.7 mph77%29.98 "Hg10 mi
10:20 PM55 °FSunny.5 mph77%29.98 "Hg10 mi
9:50 PM55 °FPassing clouds.5 mph77%29.98 "HgN/A
9:20 PM57 °FSunny.5 mph72%29.98 "Hg10 mi
8:50 PM59 °FSunny.5 mph68%29.98 "Hg10 mi
8:20 PM59 °FSunny.5 mph68%29.95 "Hg10 mi
7:50 PM59 °FPassing clouds.5 mph68%29.95 "HgN/A
7:20 PM61 °FPartly sunny.5 mph63%29.95 "HgN/A
6:50 PM61 °FPartly sunny.3 mph55%29.95 "HgN/A
6:20 PM61 °FPartly sunny.1 mph59%29.95 "HgN/A
5:50 PM61 °FPartly sunny.2 mph59%29.95 "HgN/A
5:20 PM61 °FPartly sunny.1 mph59%29.95 "HgN/A
4:50 PM59 °FBroken clouds.3 mph63%29.95 "HgN/A
4:20 PM61 °FPartly sunny.2 mph59%29.95 "HgN/A
3:50 PM59 °FPartly sunny.6 mph63%29.95 "HgN/A
3:20 PM59 °FPartly sunny.3 mph63%29.95 "HgN/A
2:50 PM59 °FPartly sunny.2 mph63%29.98 "HgN/A
2:20 PM59 °FPartly sunny.5 mph63%29.98 "HgN/A
1:50 PM57 °FMore clouds than sun.3 mph67%29.98 "HgN/A
1:20 PM57 °FPartly sunny.2 mph67%29.98 "HgN/A
12:50 PM57 °FPartly sunny.2 mph67%29.98 "HgN/A
12:20 PM55 °FPartly sunny.1 mph67%29.98 "HgN/A
11:50 AM55 °FPartly sunny.2 mph67%29.98 "HgN/A
11:20 AM55 °FPartly sunny.3 mph72%29.98 "HgN/A
10:50 AM54 °FPartly sunny.2 mph77%29.98 "HgN/A
10:20 AM54 °FScattered clouds.2 mph77%29.98 "HgN/A
9:50 AM52 °FScattered clouds.3 mph82%29.98 "HgN/A
9:20 AM54 °FPassing clouds.6 mph77%29.98 "HgN/A
8:50 AM50 °FPartly sunny.6 mph82%29.98 "HgN/A
8:20 AM50 °FBroken clouds.6 mph82%29.98 "HgN/A
7:50 AM48 °FDrizzle. Mostly cloudy.7 mph87%29.98 "HgN/A
7:20 AM48 °FPartly sunny.6 mph87%29.98 "HgN/A
6:50 AM48 °FBroken clouds.3 mph87%29.98 "HgN/A
6:20 AM48 °FMostly cloudy.2 mph87%29.98 "HgN/A
5:50 AM50 °FPassing clouds.5 mph76%29.98 "HgN/A
5:20 AM50 °FPassing clouds.3 mph76%29.95 "HgN/A
4:50 AM48 °FPassing clouds.3 mph87%29.95 "HgN/A
4:20 AM48 °FOvercast.3 mph82%29.95 "HgN/A
Weather by CustomWeather, © 2016

See weather overviewHow to use our weather pages